Time,TemperatureF,DewpointF,PressureIn,WindDirection,WindDirectionDegrees,WindSpeedMPH,WindSpeedGustMPH,Humidity,HourlyPrecipIn,Conditions,Clouds,dailyrainin,SoftwareType,DateUTC
2013-01-10 00:03:00,33.8,13.6,30.02,NE,42,3.5,3.5,43,0.00,-RA,OVC,0.00,WeatherDisplay:10.37,2013-01-10 07:03:00,
2013-01-10 00:08:00,34.0,13.3,30.02,NNE,26,3.5,3.5,42,0.00,-RA,OVC,0.00,WeatherDisplay:10.37,2013-01-10 07:08:00,
2013-01-10 00:13:00,34.5,12.6,29.98,NNE,22,4.6,4.6,40,0.00,-RA,OVC,0.00,WeatherDisplay:10.37,2013-01-10 07:13:00,
2013-01-10 00:18:00,35.1,12.0,29.98,ENE,59,4.6,4.6,38,0.00,-RA,OVC,0.00,WeatherDisplay:10.37,2013-01-10 07:18:00,
2013-01-10 00:23:00,35.1,11.4,29.98,ENE,59,4.6,4.6,37,0.00,-RA,OVC,0.00,WeatherDisplay:10.37,2013-01-10 07:23:00,
2013-01-10 00:28:00,35.3,11.6,29.98,ENE,59,1.1,1.1,37,0.00,-RA,OVC,0.00,WeatherDisplay:10.37,2013-01-10 07:28:00,
2013-01-10 00:33:00,35.2,10.2,29.98,ENE,59,1.1,1.1,35,0.00,-RA,OVC,0.00,WeatherDisplay:10.37,2013-01-10 07:33:00,
2013-01-10 00:38:00,35.1,10.8,29.98,ENE,59,1.1,1.1,36,0.00,-RA,OVC,0.00,WeatherDisplay:10.37,2013-01-10 07:38:00,
2013-01-10 00:43:00,34.8,10.5,29.98,ENE,59,1.1,1.1,36,0.00,-RA,OVC,0.00,WeatherDisplay:10.37,2013-01-10 07:43:00,
2013-01-10 00:48:00,34.5,10.2,29.98,ENE,59,0.0,0.0,36,0.00,-RA,OVC,0.00,WeatherDisplay:10.37,2013-01-10 07:48:00,
2013-01-10 00:53:00,34.3,10.7,29.98,ENE,59,0.0,0.0,37,0.00,-RA,OVC,0.00,WeatherDisplay:10.37,2013-01-10 07:53:00,
2013-01-10 00:58:00,33.8,10.2,29.98,ENE,59,3.5,3.5,37,0.00,-RA,OVC,0.00,WeatherDisplay:10.37,2013-01-10 07:58:00,
2013-01-10 01:03:00,33.7,10.7,29.98,ENE,57,2.3,2.3,38,0.00,-RA,OVC,0.00,WeatherDisplay:10.37,2013-01-10 08:03:00,
2013-01-10 01:08:00,33.4,10.5,29.98,ENE,57,2.3,2.3,38,0.00,-RA,OVC,0.00,WeatherDisplay:10.37,2013-01-10 08:08:00,
2013-01-10 01:13:00,32.7,10.4,29.98,ENE,57,1.1,1.1,39,0.00,-RA,OVC,0.00,WeatherDisplay:10.37,2013-01-10 08:13:00,
2013-01-10 01:18:00,32.1,9.9,29.98,ENE,57,3.5,3.5,39,0.00,-RA,OVC,0.00,WeatherDisplay:10.37,2013-01-10 08:18:00,
2013-01-10 01:23:00,32.1,9.9,29.98,ENE,57,2.3,2.3,39,0.00,-RA,OVC,0.00,WeatherDisplay:10.37,2013-01-10 08:23:00,
2013-01-10 01:28:00,32.0,10.4,29.98,ENE,57,2.3,2.3,40,0.00,-RA,OVC,0.00,WeatherDisplay:10.37,2013-01-10 08:28:00,
2013-01-10 01:33:00,31.7,10.1,29.98,ENE,57,3.5,3.5,40,0.00,-RA,OVC,0.00,WeatherDisplay:10.37,2013-01-10 08:33:00,
2013-01-10 01:38:00,32.1,9.9,29.98,ENE,57,3.5,3.5,39,0.00,-RA,OVC,0.00,WeatherDisplay:10.37,2013-01-10 08:38:00,
2013-01-10 01:43:00,33.2,10.3,29.98,ENE,58,1.1,1.1,38,0.00,-RA,OVC,0.00,WeatherDisplay:10.37,2013-01-10 08:43:00,
2013-01-10 01:48:00,33.9,9.7,29.98,ENE,58,1.1,1.1,36,0.00,-RA,OVC,0.00,WeatherDisplay:10.37,2013-01-10 08:48:00,
2013-01-10 01:53:00,34.1,9.9,29.95,ENE,58,0.0,0.0,36,0.00,-RA,OVC,0.00,WeatherDisplay:10.37,2013-01-10 08:53:00,
2013-01-10 01:58:00,33.8,9.6,29.95,ENE,58,0.0,0.0,36,0.00,-RA,OVC,0.00,WeatherDisplay:10.37,2013-01-10 08:58:00,
2013-01-10 02:03:00,33.4,9.9,29.95,ENE,58,3.5,3.5,37,0.00,-RA,OVC,0.00,WeatherDisplay:10.37,2013-01-10 09:03:00,
2013-01-10 02:08:00,33.2,9.7,29.95,ENE,57,3.5,3.5,37,0.00,-RA,OVC,0.00,WeatherDisplay:10.37,2013-01-10 09:08:00,
2013-01-10 02:13:00,33.9,9.7,29.95,NE,51,4.6,4.6,36,0.00,-RA,OVC,0.00,WeatherDisplay:10.37,2013-01-10 09:13:00,
2013-01-10 02:18:00,34.4,9.5,29.95,NE,50,3.5,3.5,35,0.00,-RA,OVC,0.00,WeatherDisplay:10.37,2013-01-10 09:18:00,
2013-01-10 02:23:00,34.1,9.9,29.95,NE,51,3.5,3.5,36,0.00,-RA,OVC,0.00,WeatherDisplay:10.37,2013-01-10 09:23:00,
2013-01-10 02:28:00,33.6,10.1,29.95,NE,51,1.1,0.0,37,0.00,-RA,OVC,0.00,WeatherDisplay:10.37,2013-01-10 09:28:00,
2013-01-10 02:33:00,33.1,10.2,29.95,NE,49,2.3,2.3,38,0.00,-RA,OVC,0.00,WeatherDisplay:10.37,2013-01-10 09:33:00,
2013-01-10 02:38:00,32.5,9.7,29.95,NE,51,3.0,3.0,38,0.00,-RA,OVC,0.00,WeatherDisplay:10.37,2013-01-10 09:38:00,
2013-01-10 02:43:00,31.3,9.7,29.95,East,94,0.0,0.0,40,0.00,-RA,OVC,0.00,WeatherDisplay:10.37,2013-01-10 09:43:00,
2013-01-10 02:48:00,30.3,9.9,29.95,East,94,0.0,0.0,42,0.00,-RA,OVC,0.00,WeatherDisplay:10.37,2013-01-10 09:48:00,
2013-01-10 02:53:00,29.7,9.9,29.95,East,94,0.0,0.0,43,0.00,-RA,OVC,0.00,WeatherDisplay:10.37,2013-01-10 09:53:00,
2013-01-10 02:58:00,29.2,10.0,29.95,East,94,0.0,0.0,44,0.00,-RA,OVC,0.00,WeatherDisplay:10.37,2013-01-10 09:58:00,
2013-01-10 03:03:00,28.7,10.0,29.95,East,94,1.1,1.1,45,0.00,-RA,OVC,0.00,WeatherDisplay:10.37,2013-01-10 10:03:00,
2013-01-10 03:08:00,28.1,9.9,29.95,East,94,3.5,3.5,46,0.00,-RA,OVC,0.00,WeatherDisplay:10.37,2013-01-10 10:08:00,
2013-01-10 03:13:00,27.7,10.1,29.91,East,94,1.1,0.0,47,0.00,-RA,OVC,0.00,WeatherDisplay:10.37,2013-01-10 10:13:00,
2013-01-10 03:18:00,27.4,9.8,29.91,East,94,0.0,0.0,47,0.00,-RA,OVC,0.00,WeatherDisplay:10.37,2013-01-10 10:18:00,
2013-01-10 03:23:00,27.2,9.6,29.91,East,94,0.0,0.0,47,0.00,-RA,OVC,0.00,WeatherDisplay:10.37,2013-01-10 10:23:00,
2013-01-10 03:28:00,27.0,9.9,29.91,East,94,3.5,3.5,48,0.00,-RA,OVC,0.00,WeatherDisplay:10.37,2013-01-10 10:28:00,
2013-01-10 03:33:00,26.9,9.8,29.91,East,94,0.0,0.0,48,0.00,-RA,OVC,0.00,WeatherDisplay:10.37,2013-01-10 10:33:00,
2013-01-10 03:38:00,27.0,9.9,29.90,East,94,2.3,2.3,48,0.00,-RA,OVC,0.00,WeatherDisplay:10.37,2013-01-10 10:38:00,
2013-01-10 03:43:00,27.7,10.1,29.90,East,88,3.5,3.5,47,0.00,-RA,OVC,0.00,WeatherDisplay:10.37,2013-01-10 10:43:00,
2013-01-10 03:48:00,29.9,9.6,29.90,ENE,74,4.6,4.6,42,0.00,-RA,OVC,0.00,WeatherDisplay:10.37,2013-01-10 10:48:00,
2013-01-10 03:53:00,33.0,10.1,29.90,NE,52,10.4,10.4,38,0.00,-RA,OVC,0.00,WeatherDisplay:10.37,2013-01-10 10:53:00,
2013-01-10 03:58:00,36.2,9.8,29.90,NE,52,6.0,6.0,33,0.00,-RA,OVC,0.00,WeatherDisplay:10.37,2013-01-10 10:58:00,
2013-01-10 04:03:00,37.9,9.9,29.90,NE,46,4.6,4.6,31,0.00,-RA,OVC,0.00,WeatherDisplay:10.37,2013-01-10 11:03:00,
2013-01-10 04:08:00,38.6,10.5,29.90,NE,53,5.8,5.8,31,0.00,-RA,OVC,0.00,WeatherDisplay:10.37,2013-01-10 11:08:00,
2013-01-10 04:13:00,38.7,10.6,29.88,ENE,57,2.3,0.0,31,0.00,-RA,OVC,0.00,WeatherDisplay:10.37,2013-01-10 11:13:00,
2013-01-10 04:18:00,38.4,9.6,29.88,ENE,63,3.5,3.5,30,0.00,-RA,OVC,0.00,WeatherDisplay:10.37,2013-01-10 11:18:00,
2013-01-10 04:23:00,38.2,8.7,29.88,ENE,58,6.0,6.0,29,0.00,-RA,OVC,0.00,WeatherDisplay:10.37,2013-01-10 11:23:00,
2013-01-10 04:28:00,38.4,8.9,29.88,NNE,28,4.6,4.6,29,0.00,-RA,OVC,0.00,WeatherDisplay:10.37,2013-01-10 11:28:00,
2013-01-10 04:33:00,38.4,9.6,29.88,NNE,31,2.3,2.3,30,0.00,-RA,OVC,0.00,WeatherDisplay:10.37,2013-01-10 11:33:00,
2013-01-10 04:38:00,38.3,8.8,29.88,NE,34,2.3,2.3,29,0.00,-RA,OVC,0.00,WeatherDisplay:10.37,2013-01-10 11:38:00,
2013-01-10 04:43:00,38.3,9.5,29.88,NE,34,0.0,0.0,30,0.00,-RA,OVC,0.00,WeatherDisplay:10.37,2013-01-10 11:43:00,
2013-01-10 04:48:00,38.1,9.4,29.88,NE,34,0.0,0.0,30,0.00,-RA,OVC,0.00,WeatherDisplay:10.37,2013-01-10 11:48:00,
2013-01-10 04:53:00,38.0,9.3,29.88,NE,34,0.0,0.0,30,0.00,-RA,OVC,0.00,WeatherDisplay:10.37,2013-01-10 11:53:00,
2013-01-10 04:58:00,37.8,9.1,29.88,NE,34,0.0,0.0,30,0.00,-RA,OVC,0.00,WeatherDisplay:10.37,2013-01-10 11:58:00,
2013-01-10 05:03:00,37.7,9.0,29.88,NE,34,2.3,2.3,30,0.00,-RA,OVC,0.00,WeatherDisplay:10.37,2013-01-10 12:03:00,
2013-01-10 05:08:00,37.5,8.8,29.88,NE,34,0.0,0.0,30,0.00,-RA,OVC,0.00,WeatherDisplay:10.37,2013-01-10 12:08:00,
2013-01-10 05:13:00,37.0,9.1,29.85,NE,34,0.0,0.0,31,0.00,-RA,OVC,0.00,WeatherDisplay:10.37,2013-01-10 12:13:00,
2013-01-10 05:18:00,36.3,8.5,29.85,NE,34,0.0,0.0,31,0.00,-RA,OVC,0.00,WeatherDisplay:10.37,2013-01-10 12:18:00,
2013-01-10 05:23:00,35.6,8.6,29.85,NE,34,0.0,0.0,32,0.00,-RA,OVC,0.00,WeatherDisplay:10.37,2013-01-10 12:23:00,
2013-01-10 05:28:00,34.6,8.4,29.85,NE,34,0.0,0.0,33,0.00,-RA,OVC,0.00,WeatherDisplay:10.37,2013-01-10 12:28:00,
2013-01-10 05:33:00,33.5,8.7,29.85,NE,34,1.1,1.1,35,0.00,-RA,OVC,0.00,WeatherDisplay:10.37,2013-01-10 12:33:00,
2013-01-10 05:38:00,32.8,8.7,29.85,NE,34,2.3,2.3,36,0.00,-RA,OVC,0.00,WeatherDisplay:10.37,2013-01-10 12:38:00,
2013-01-10 05:43:00,32.3,8.3,29.85,NE,34,0.0,0.0,36,0.00,-RA,OVC,0.00,WeatherDisplay:10.37,2013-01-10 12:43:00,
2013-01-10 05:48:00,32.0,9.2,29.85,NE,34,3.5,3.5,38,0.00,-RA,OVC,0.00,WeatherDisplay:10.37,2013-01-10 12:48:00,
2013-01-10 05:53:00,31.1,9.0,29.85,NE,34,2.3,2.3,39,0.00,-RA,OVC,0.00,WeatherDisplay:10.37,2013-01-10 12:53:00,
2013-01-10 05:58:00,30.6,9.7,29.85,NE,40,2.3,2.3,41,0.00,-RA,OVC,0.00,WeatherDisplay:10.37,2013-01-10 12:58:00,
2013-01-10 06:03:00,30.3,9.4,29.85,SSE,167,1.1,1.1,41,0.00,-RA,OVC,0.00,WeatherDisplay:10.37,2013-01-10 13:03:00,
2013-01-10 06:08:00,30.7,8.6,29.85,SSE,167,0.0,0.0,39,0.00,-RA,OVC,0.00,WeatherDisplay:10.37,2013-01-10 13:08:00,
2013-01-10 06:13:00,31.3,8.0,29.85,SSE,167,0.0,0.0,37,0.00,-RA,OVC,0.00,WeatherDisplay:10.37,2013-01-10 13:13:00,
2013-01-10 06:18:00,31.9,8.5,29.85,SSE,167,0.0,0.0,37,0.00,-RA,OVC,0.00,WeatherDisplay:10.37,2013-01-10 13:18:00,
2013-01-10 06:23:00,32.1,9.3,29.85,SSE,167,2.3,2.3,38,0.00,-RA,OVC,0.00,WeatherDisplay:10.37,2013-01-10 13:23:00,
2013-01-10 06:28:00,31.6,8.9,29.85,SSE,167,0.0,0.0,38,0.00,-RA,OVC,0.00,WeatherDisplay:10.37,2013-01-10 13:28:00,
2013-01-10 06:33:00,31.1,8.4,29.85,SSE,167,0.0,0.0,38,0.00,-RA,OVC,0.00,WeatherDisplay:10.37,2013-01-10 13:33:00,
2013-01-10 06:38:00,30.6,8.5,29.85,SSE,167,2.3,2.3,39,0.00,-RA,OVC,0.00,WeatherDisplay:10.37,2013-01-10 13:38:00,
2013-01-10 06:43:00,30.1,8.7,29.85,SSE,167,0.0,0.0,40,0.00,-RA,OVC,0.00,WeatherDisplay:10.37,2013-01-10 13:43:00,
2013-01-10 06:48:00,29.6,8.7,29.85,SSE,167,0.0,0.0,41,0.00,-RA,OVC,0.00,WeatherDisplay:10.37,2013-01-10 13:48:00,
2013-01-10 06:53:00,29.1,9.4,29.83,SSE,167,2.3,2.3,43,0.00,-RA,OVC,0.00,WeatherDisplay:10.37,2013-01-10 13:53:00,
2013-01-10 06:58:00,28.5,9.3,29.83,SSE,167,0.0,0.0,44,0.00,-RA,OVC,0.00,WeatherDisplay:10.37,2013-01-10 13:58:00,
2013-01-10 07:03:00,27.8,9.2,29.83,SSE,167,2.3,2.3,45,0.00,-RA,OVC,0.00,WeatherDisplay:10.37,2013-01-10 14:03:00,
2013-01-10 07:08:00,27.4,9.3,29.83,SSE,167,0.0,0.0,46,0.00,-RA,OVC,0.00,WeatherDisplay:10.37,2013-01-10 14:08:00,
2013-01-10 07:13:00,27.2,9.6,29.83,SSE,167,0.0,0.0,47,0.00,-RA,OVC,0.00,WeatherDisplay:10.37,2013-01-10 14:13:00,
2013-01-10 07:18:00,27.0,9.9,29.83,SSE,167,0.0,0.0,48,0.00,-RA,OVC,0.00,WeatherDisplay:10.37,2013-01-10 14:18:00,
2013-01-10 07:23:00,26.8,9.7,29.83,SSE,167,0.0,0.0,48,0.00,-RA,OVC,0.00,WeatherDisplay:10.37,2013-01-10 14:23:00,
2013-01-10 07:28:00,26.6,10.0,29.83,SSE,167,1.1,1.1,49,0.00,-RA,OVC,0.00,WeatherDisplay:10.37,2013-01-10 14:28:00,
2013-01-10 07:33:00,26.5,9.9,29.82,SSE,167,1.1,0.0,49,0.00,-RA,OVC,0.00,WeatherDisplay:10.37,2013-01-10 14:33:00,
2013-01-10 07:38:00,26.4,10.3,29.82,SSE,167,1.1,1.1,50,0.00,-RA,OVC,0.00,WeatherDisplay:10.37,2013-01-10 14:38:00,
2013-01-10 07:43:00,26.5,9.9,29.82,SSE,167,1.1,1.1,49,0.00,-RA,OVC,0.00,WeatherDisplay:10.37,2013-01-10 14:43:00,
2013-01-10 07:48:00,27.0,9.9,29.82,SSE,167,0.0,0.0,48,0.00,-RA,OVC,0.00,WeatherDisplay:10.37,2013-01-10 14:48:00,
2013-01-10 07:53:00,27.7,10.1,29.82,SSE,167,0.0,0.0,47,0.00,-RA,OVC,0.00,WeatherDisplay:10.37,2013-01-10 14:53:00,
2013-01-10 07:58:00,28.4,10.7,29.82,SSE,167,0.0,0.0,47,0.00,-RA,OVC,0.00,WeatherDisplay:10.37,2013-01-10 14:58:00,
2013-01-10 08:03:00,28.9,10.7,29.82,SSE,167,0.0,0.0,46,0.00,-RA,OVC,0.00,WeatherDisplay:10.37,2013-01-10 15:03:00,
2013-01-10 08:08:00,29.6,10.8,29.82,SSE,167,0.0,0.0,45,0.00,-RA,OVC,0.00,WeatherDisplay:10.37,2013-01-10 15:08:00,
2013-01-10 08:13:00,30.2,11.9,29.82,SSE,167,0.0,0.0,46,0.00,-RA,OVC,0.00,WeatherDisplay:10.37,2013-01-10 15:13:00,
2013-01-10 08:18:00,30.8,11.9,29.82,SSE,167,0.0,0.0,45,0.00,-RA,OVC,0.00,WeatherDisplay:10.37,2013-01-10 15:18:00,
2013-01-10 08:23:00,31.2,11.8,29.82,SSE,167,0.0,0.0,44,0.00,-RA,OVC,0.00,WeatherDisplay:10.37,2013-01-10 15:23:00,
2013-01-10 08:28:00,32.0,13.0,29.82,SSE,167,0.0,0.0,45,0.00,-RA,OVC,0.00,WeatherDisplay:10.37,2013-01-10 15:28:00,
2013-01-10 08:33:00,32.4,12.9,29.82,SSE,167,0.0,0.0,44,0.00,-RA,OVC,0.00,WeatherDisplay:10.37,2013-01-10 15:33:00,
2013-01-10 08:38:00,32.9,12.8,29.82,SSE,167,0.0,0.0,43,0.00,-RA,OVC,0.00,WeatherDisplay:10.37,2013-01-10 15:38:00,
2013-01-10 08:43:00,33.4,13.3,29.80,SSE,167,0.0,0.0,43,0.00,-RA,OVC,0.00,WeatherDisplay:10.37,2013-01-10 15:43:00,
2013-01-10 08:48:00,33.9,14.3,29.80,SSE,167,0.0,0.0,44,0.00,-RA,OVC,0.00,WeatherDisplay:10.37,2013-01-10 15:48:00,
2013-01-10 08:53:00,34.2,14.0,29.80,SSE,167,0.0,0.0,43,0.00,-RA,OVC,0.00,WeatherDisplay:10.37,2013-01-10 15:53:00,
2013-01-10 08:58:00,34.6,14.4,29.80,SSE,167,3.5,3.5,43,0.00,-RA,OVC,0.00,WeatherDisplay:10.37,2013-01-10 15:58:00,
2013-01-10 09:03:00,34.9,15.7,29.80,SSE,167,0.0,0.0,45,0.00,-RA,OVC,0.00,WeatherDisplay:10.37,2013-01-10 16:03:00,
2013-01-10 09:08:00,35.2,16.0,29.80,SSE,167,0.0,0.0,45,0.00,-RA,OVC,0.00,WeatherDisplay:10.37,2013-01-10 16:08:00,
2013-01-10 09:13:00,35.5,14.1,29.80,SSE,167,0.0,0.0,41,0.00,-RA,OVC,0.00,WeatherDisplay:10.37,2013-01-10 16:13:00,
2013-01-10 09:18:00,36.0,15.6,29.80,SSE,167,0.0,0.0,43,0.00,-RA,OVC,0.00,WeatherDisplay:10.37,2013-01-10 16:18:00,
2013-01-10 09:23:00,36.4,13.8,29.80,SSE,167,0.0,0.0,39,0.00,-RA,OVC,0.00,WeatherDisplay:10.37,2013-01-10 16:23:00,
2013-01-10 09:28:00,36.8,14.1,29.80,SSE,167,0.0,0.0,39,0.00,-RA,OVC,0.00,WeatherDisplay:10.37,2013-01-10 16:28:00,
2013-01-10 09:33:00,37.3,14.0,29.79,SSE,167,0.0,0.0,38,0.00,-RA,OVC,0.00,WeatherDisplay:10.37,2013-01-10 16:33:00,
2013-01-10 09:38:00,37.9,13.3,29.79,SSE,167,0.0,0.0,36,0.00,-RA,OVC,0.00,WeatherDisplay:10.37,2013-01-10 16:38:00,
2013-01-10 09:43:00,38.4,13.1,29.79,SSE,167,2.3,2.3,35,0.00,-RA,OVC,0.00,WeatherDisplay:10.37,2013-01-10 16:43:00,
2013-01-10 09:48:00,38.8,12.8,29.79,SSE,167,0.0,0.0,34,0.00,-RA,OVC,0.00,WeatherDisplay:10.37,2013-01-10 16:48:00,
2013-01-10 09:53:00,39.2,13.8,29.79,SSE,167,1.1,1.1,35,0.00,-RA,OVC,0.00,WeatherDisplay:10.37,2013-01-10 16:53:00,
2013-01-10 09:58:00,39.7,13.6,29.79,SSE,167,0.0,0.1,34,0.00,-RA,OVC,0.00,WeatherDisplay:10.37,2013-01-10 16:58:00,
2013-01-10 10:03:00,40.2,12.6,29.79,SSE,167,3.5,3.5,32,0.00,-RA,OVC,0.00,WeatherDisplay:10.37,2013-01-10 17:03:00,
2013-01-10 10:08:00,40.7,13.1,29.79,SSE,167,0.0,0.0,32,0.00,-RA,OVC,0.00,WeatherDisplay:10.37,2013-01-10 17:08:00,
2013-01-10 10:13:00,41.0,12.6,29.79,SSE,167,0.0,0.0,31,0.00,-RA,OVC,0.00,WeatherDisplay:10.37,2013-01-10 17:13:00,
2013-01-10 10:18:00,41.3,12.1,29.79,SSE,167,1.1,1.1,30,0.00,-RA,OVC,0.00,WeatherDisplay:10.37,2013-01-10 17:18:00,
2013-01-10 10:23:00,41.7,13.2,29.79,SSE,167,0.0,0.0,31,0.00,-RA,OVC,0.00,WeatherDisplay:10.37,2013-01-10 17:23:00,
2013-01-10 10:28:00,41.9,14.1,29.79,SSE,167,0.0,0.0,32,0.00,-RA,OVC,0.00,WeatherDisplay:10.37,2013-01-10 17:28:00,
2013-01-10 10:33:00,42.2,13.7,29.76,SSE,167,0.0,0.0,31,0.00,-RA,OVC,0.00,WeatherDisplay:10.37,2013-01-10 17:33:00,
2013-01-10 10:38:00,42.5,13.2,29.76,SSE,167,0.0,0.0,30,0.00,-RA,OVC,0.00,WeatherDisplay:10.37,2013-01-10 17:38:00,
2013-01-10 10:43:00,42.7,14.8,29.76,SSE,167,2.3,2.3,32,0.00,-RA,OVC,0.00,WeatherDisplay:10.37,2013-01-10 17:43:00,
2013-01-10 10:48:00,42.8,14.2,29.76,SSE,167,0.0,0.0,31,0.00,-RA,OVC,0.00,WeatherDisplay:10.37,2013-01-10 17:48:00,
2013-01-10 10:53:00,42.9,15.0,29.76,SSE,167,1.1,0.0,32,0.00,-RA,OVC,0.00,WeatherDisplay:10.37,2013-01-10 17:53:00,
2013-01-10 10:58:00,42.9,15.0,29.76,SSE,167,2.3,2.3,32,0.00,-RA,OVC,0.00,WeatherDisplay:10.37,2013-01-10 17:58:00,
2013-01-10 11:03:00,42.9,14.3,29.76,SSE,167,3.5,3.5,31,0.00,-RA,OVC,0.00,WeatherDisplay:10.37,2013-01-10 18:03:00,
2013-01-10 11:08:00,42.9,14.3,29.76,SSE,167,0.0,0.1,31,0.00,-RA,OVC,0.00,WeatherDisplay:10.37,2013-01-10 18:08:00,
2013-01-10 11:13:00,43.0,13.6,29.76,SSE,167,0.0,0.1,30,0.00,-RA,OVC,0.00,WeatherDisplay:10.37,2013-01-10 18:13:00,
2013-01-10 11:18:00,43.1,12.9,29.76,SSE,167,3.5,3.5,29,0.00,-RA,OVC,0.00,WeatherDisplay:10.37,2013-01-10 18:18:00,
2013-01-10 11:23:00,43.1,12.9,29.76,SSE,167,3.5,3.5,29,0.00,-RA,OVC,0.00,WeatherDisplay:10.37,2013-01-10 18:23:00,
2013-01-10 11:28:00,43.1,13.7,29.76,SSE,167,2.3,2.3,30,0.00,-RA,OVC,0.00,WeatherDisplay:10.37,2013-01-10 18:28:00,
2013-01-10 11:33:00,43.0,14.4,29.76,SSE,167,3.5,3.5,31,0.00,-RA,OVC,0.00,WeatherDisplay:10.37,2013-01-10 18:33:00,
2013-01-10 11:38:00,42.9,15.0,29.76,SSE,167,3.5,3.5,32,0.00,-RA,OVC,0.00,WeatherDisplay:10.37,2013-01-10 18:38:00,
2013-01-10 11:43:00,42.8,13.5,29.72,SSE,167,3.5,3.5,30,0.00,-RA,OVC,0.00,WeatherDisplay:10.37,2013-01-10 18:43:00,
2013-01-10 11:48:00,42.7,13.4,29.72,SSE,167,3.5,3.5,30,0.00,-RA,OVC,0.00,WeatherDisplay:10.37,2013-01-10 18:48:00,
2013-01-10 11:53:00,42.8,13.5,29.72,SSE,167,3.5,3.5,30,0.00,-RA,OVC,0.00,WeatherDisplay:10.37,2013-01-10 18:53:00,
2013-01-10 11:58:00,42.7,14.1,29.72,South,176,3.5,3.5,31,0.00,-RA,OVC,0.00,WeatherDisplay:10.37,2013-01-10 18:58:00,
2013-01-10 12:03:00,42.6,13.3,29.72,South,176,3.5,3.5,30,0.00,-RA,OVC,0.00,WeatherDisplay:10.37,2013-01-10 19:03:00,
2013-01-10 12:08:00,42.4,13.9,29.72,SSW,205,4.6,4.6,31,0.00,-RA,OVC,0.00,WeatherDisplay:10.37,2013-01-10 19:08:00,
2013-01-10 12:13:00,42.2,14.4,29.72,SSW,205,0.0,0.0,32,0.00,-RA,OVC,0.00,WeatherDisplay:10.37,2013-01-10 19:13:00,
2013-01-10 12:18:00,42.2,14.4,29.72,SSW,205,0.0,0.0,32,0.00,-RA,OVC,0.00,WeatherDisplay:10.37,2013-01-10 19:18:00,
2013-01-10 12:23:00,42.2,15.1,29.72,SSW,205,0.0,0.0,33,0.00,-RA,OVC,0.00,WeatherDisplay:10.37,2013-01-10 19:23:00,
2013-01-10 12:28:00,42.1,15.0,29.72,SSW,205,2.3,2.3,33,0.00,-RA,OVC,0.00,WeatherDisplay:10.37,2013-01-10 19:28:00,
2013-01-10 12:33:00,42.0,15.6,29.72,SSW,205,3.5,3.5,34,0.00,-RA,OVC,0.00,WeatherDisplay:10.37,2013-01-10 19:33:00,
2013-01-10 12:38:00,42.0,16.9,29.72,SSW,205,2.3,2.3,36,0.00,-RA,OVC,0.00,WeatherDisplay:10.37,2013-01-10 19:38:00,
2013-01-10 12:43:00,41.9,17.5,29.72,SSW,205,2.3,2.3,37,0.00,-RA,OVC,0.00,WeatherDisplay:10.37,2013-01-10 19:43:00,
2013-01-10 12:48:00,41.7,17.9,29.72,SSW,205,3.5,3.5,38,0.00,-RA,OVC,0.00,WeatherDisplay:10.37,2013-01-10 19:48:00,
2013-01-10 12:53:00,41.5,18.4,29.72,SSW,205,3.5,3.5,39,0.00,-RA,OVC,0.00,WeatherDisplay:10.37,2013-01-10 19:53:00,
2013-01-10 12:58:00,41.3,18.8,29.72,SSW,205,2.3,2.3,40,0.00,-RA,OVC,0.00,WeatherDisplay:10.37,2013-01-10 19:58:00,
2013-01-10 13:03:00,41.3,19.3,29.72,SSW,205,2.3,2.3,41,0.00,-RA,OVC,0.00,WeatherDisplay:10.37,2013-01-10 20:03:00,
2013-01-10 13:08:00,41.4,18.9,29.68,SSW,205,4.0,4.0,40,0.00,-RA,OVC,0.00,WeatherDisplay:10.37,2013-01-10 20:08:00,
2013-01-10 13:13:00,41.3,19.3,29.68,SSW,205,3.5,3.5,41,0.00,-RA,OVC,0.00,WeatherDisplay:10.37,2013-01-10 20:13:00,
2013-01-10 13:18:00,41.4,19.4,29.68,SSW,205,1.1,1.1,41,0.00,-RA,OVC,0.00,WeatherDisplay:10.37,2013-01-10 20:18:00,
2013-01-10 13:23:00,41.6,18.4,29.68,SSW,205,3.5,3.5,39,0.00,-RA,OVC,0.00,WeatherDisplay:10.37,2013-01-10 20:23:00,
2013-01-10 13:28:00,41.9,18.1,29.68,South,189,4.6,4.6,38,0.00,-RA,OVC,0.00,WeatherDisplay:10.37,2013-01-10 20:28:00,
2013-01-10 13:33:00,42.0,17.6,29.68,South,189,3.5,3.5,37,0.00,-RA,OVC,0.00,WeatherDisplay:10.37,2013-01-10 20:33:00,
2013-01-10 13:38:00,42.0,17.6,29.68,South,190,1.1,1.1,37,0.00,-RA,OVC,0.00,WeatherDisplay:10.37,2013-01-10 20:38:00,
2013-01-10 13:43:00,42.0,17.6,29.68,South,190,1.1,1.1,37,0.00,-RA,OVC,0.00,WeatherDisplay:10.37,2013-01-10 20:43:00,
2013-01-10 13:48:00,42.1,17.7,29.68,South,190,0.0,0.0,37,0.00,-RA,OVC,0.00,WeatherDisplay:10.37,2013-01-10 20:48:00,
2013-01-10 13:53:00,42.2,17.8,29.68,South,190,2.3,2.3,37,0.00,-RA,OVC,0.00,WeatherDisplay:10.37,2013-01-10 20:53:00,
2013-01-10 13:58:00,42.3,17.8,29.68,South,190,1.1,1.1,37,0.00,-RA,OVC,0.00,WeatherDisplay:10.37,2013-01-10 20:58:00,
2013-01-10 14:03:00,42.4,17.9,29.68,South,190,0.0,0.0,37,0.00,-RA,OVC,0.00,WeatherDisplay:10.37,2013-01-10 21:03:00,
2013-01-10 14:08:00,42.5,17.4,29.68,South,190,2.0,2.0,36,0.00,-RA,OVC,0.00,WeatherDisplay:10.37,2013-01-10 21:08:00,
2013-01-10 14:13:00,42.6,18.7,29.66,South,190,0.0,0.0,38,0.00,-RA,OVC,0.00,WeatherDisplay:10.37,2013-01-10 21:13:00,
2013-01-10 14:18:00,42.7,18.8,29.66,South,190,1.1,1.1,38,0.00,-RA,OVC,0.00,WeatherDisplay:10.37,2013-01-10 21:18:00,
2013-01-10 14:23:00,42.7,18.8,29.66,South,190,0.0,0.0,38,0.00,-RA,OVC,0.00,WeatherDisplay:10.37,2013-01-10 21:23:00,
2013-01-10 14:28:00,42.7,18.8,29.66,South,190,3.5,3.5,38,0.00,-RA,OVC,0.00,WeatherDisplay:10.37,2013-01-10 21:28:00,
2013-01-10 14:33:00,42.6,19.3,29.66,South,190,3.5,3.5,39,0.00,-RA,OVC,0.00,WeatherDisplay:10.37,2013-01-10 21:33:00,
2013-01-10 14:38:00,42.5,19.8,29.66,South,190,1.1,0.0,40,0.00,-RA,OVC,0.00,WeatherDisplay:10.37,2013-01-10 21:38:00,
2013-01-10 14:43:00,42.5,19.8,29.66,South,190,0.0,0.1,40,0.00,-RA,OVC,0.00,WeatherDisplay:10.37,2013-01-10 21:43:00,
2013-01-10 14:48:00,42.6,19.9,29.66,South,190,0.0,0.0,40,0.00,-RA,OVC,0.00,WeatherDisplay:10.37,2013-01-10 21:48:00,
2013-01-10 14:53:00,42.8,19.5,29.66,South,190,0.0,0.1,39,0.00,-RA,OVC,0.00,WeatherDisplay:10.37,2013-01-10 21:53:00,
2013-01-10 14:58:00,42.9,19.6,29.66,South,190,0.0,0.0,39,0.00,-RA,OVC,0.00,WeatherDisplay:10.37,2013-01-10 21:58:00,
2013-01-10 15:03:00,43.0,19.7,29.66,South,190,1.1,1.1,39,0.00,-RA,OVC,0.00,WeatherDisplay:10.37,2013-01-10 22:03:00,
2013-01-10 15:08:00,43.1,19.8,29.66,South,190,0.0,0.0,39,0.00,-RA,OVC,0.00,WeatherDisplay:10.37,2013-01-10 22:08:00,
2013-01-10 15:13:00,43.1,19.8,29.66,South,190,0.0,0.0,39,0.00,-RA,OVC,0.00,WeatherDisplay:10.37,2013-01-10 22:13:00,
2013-01-10 15:18:00,43.1,19.8,29.66,South,190,2.3,0.0,39,0.00,-RA,OVC,0.00,WeatherDisplay:10.37,2013-01-10 22:18:00,
2013-01-10 15:23:00,43.1,19.8,29.66,South,190,1.1,0.0,39,0.00,-RA,OVC,0.00,WeatherDisplay:10.37,2013-01-10 22:23:00,
2013-01-10 15:28:00,43.1,20.4,29.66,South,190,2.3,0.0,40,0.00,-RA,OVC,0.00,WeatherDisplay:10.37,2013-01-10 22:28:00,
2013-01-10 15:33:00,43.0,20.3,29.66,South,190,2.3,2.3,40,0.00,-RA,OVC,0.00,WeatherDisplay:10.37,2013-01-10 22:33:00,
2013-01-10 15:38:00,43.0,20.3,29.66,South,190,0.0,0.0,40,0.00,-RA,OVC,0.00,WeatherDisplay:10.37,2013-01-10 22:38:00,
2013-01-10 15:43:00,43.0,19.7,29.66,South,190,0.0,0.0,39,0.00,-RA,OVC,0.00,WeatherDisplay:10.37,2013-01-10 22:43:00,
2013-01-10 15:48:00,43.1,22.1,29.66,South,190,0.0,0.0,43,0.00,-RA,OVC,0.00,WeatherDisplay:10.37,2013-01-10 22:48:00,
2013-01-10 15:53:00,43.1,20.4,29.66,South,190,0.0,0.0,40,0.00,-RA,OVC,0.00,WeatherDisplay:10.37,2013-01-10 22:53:00,
2013-01-10 15:58:00,43.0,20.3,29.66,South,190,0.0,0.0,40,0.00,-RA,OVC,0.00,WeatherDisplay:10.37,2013-01-10 22:58:00,
2013-01-10 16:03:00,42.9,20.2,29.66,South,190,1.0,1.0,40,0.00,-RA,OVC,0.00,WeatherDisplay:10.37,2013-01-10 23:03:00,
2013-01-10 16:08:00,42.8,20.7,29.66,South,190,0.0,0.0,41,0.00,-RA,OVC,0.00,WeatherDisplay:10.37,2013-01-10 23:08:00,
2013-01-10 16:13:00,42.6,20.5,29.66,South,190,0.0,0.0,41,0.00,-RA,OVC,0.00,WeatherDisplay:10.37,2013-01-10 23:13:00,
2013-01-10 16:18:00,42.4,20.3,29.66,South,190,0.0,0.0,41,0.00,-RA,OVC,0.00,WeatherDisplay:10.37,2013-01-10 23:18:00,
2013-01-10 16:23:00,42.2,20.2,29.66,South,190,0.0,0.0,41,0.00,-RA,OVC,0.00,WeatherDisplay:10.37,2013-01-10 23:23:00,
2013-01-10 16:28:00,42.0,20.0,29.66,South,190,0.0,0.0,41,0.00,-RA,OVC,0.00,WeatherDisplay:10.37,2013-01-10 23:28:00,
2013-01-10 16:33:00,41.8,20.4,29.63,South,190,0.0,0.0,42,0.00,-RA,OVC,0.00,WeatherDisplay:10.37,2013-01-10 23:33:00,
2013-01-10 16:38:00,41.5,20.6,29.63,South,190,0.0,0.0,43,0.00,-RA,OVC,0.00,WeatherDisplay:10.37,2013-01-10 23:38:00,
2013-01-10 16:43:00,41.1,20.3,29.63,South,190,0.0,0.0,43,0.00,-RA,OVC,0.00,WeatherDisplay:10.37,2013-01-10 23:43:00,
2013-01-10 16:48:00,40.7,20.5,29.63,South,190,0.0,0.0,44,0.00,-RA,OVC,0.00,WeatherDisplay:10.37,2013-01-10 23:48:00,
2013-01-10 16:53:00,40.4,20.2,29.63,South,190,0.0,0.0,44,0.00,-RA,OVC,0.00,WeatherDisplay:10.37,2013-01-10 23:53:00,
2013-01-10 16:58:00,39.9,20.3,29.63,South,190,0.0,0.0,45,0.00,-RA,OVC,0.00,WeatherDisplay:10.37,2013-01-10 23:58:00,
2013-01-10 17:03:00,39.3,20.2,29.63,South,190,0.0,0.0,46,0.00,-RA,OVC,0.00,WeatherDisplay:10.37,2013-01-11 00:03:00,
2013-01-10 17:08:00,38.9,19.9,29.63,South,190,0.0,0.0,46,0.00,-RA,OVC,0.00,WeatherDisplay:10.37,2013-01-11 00:08:00,
2013-01-10 17:13:00,38.4,19.9,29.63,South,190,0.0,0.0,47,0.00,-RA,OVC,0.00,WeatherDisplay:10.37,2013-01-11 00:13:00,
2013-01-10 17:18:00,37.7,20.2,29.63,South,190,0.0,0.0,49,0.00,-RA,OVC,0.00,WeatherDisplay:10.37,2013-01-11 00:18:00,
2013-01-10 17:23:00,37.3,20.3,29.63,South,190,0.0,0.0,50,0.00,-RA,OVC,0.00,WeatherDisplay:10.37,2013-01-11 00:23:00,
2013-01-10 17:28:00,36.8,20.3,29.63,South,190,0.0,0.0,51,0.00,-RA,OVC,0.00,WeatherDisplay:10.37,2013-01-11 00:28:00,
2013-01-10 17:33:00,36.4,20.0,29.63,South,190,0.0,0.6,51,0.00,-RA,OVC,0.00,WeatherDisplay:10.37,2013-01-11 00:33:00,
2013-01-10 17:38:00,35.9,20.0,29.63,South,190,0.0,0.0,52,0.00,-RA,OVC,0.00,WeatherDisplay:10.37,2013-01-11 00:38:00,
2013-01-10 17:43:00,35.5,20.0,29.63,South,190,0.0,0.0,53,0.00,-RA,OVC,0.00,WeatherDisplay:10.37,2013-01-11 00:43:00,
2013-01-10 17:48:00,35.1,20.1,29.63,South,190,0.0,0.0,54,0.00,-RA,OVC,0.00,WeatherDisplay:10.37,2013-01-11 00:48:00,
2013-01-10 17:53:00,34.8,20.3,29.60,South,190,0.0,0.0,55,0.00,-RA,OVC,0.00,WeatherDisplay:10.37,2013-01-11 00:53:00,
2013-01-10 17:58:00,34.4,19.9,29.60,South,190,3.5,3.5,55,0.00,-RA,OVC,0.00,WeatherDisplay:10.37,2013-01-11 00:58:00,
2013-01-10 18:03:00,34.2,20.1,29.60,South,190,2.3,2.3,56,0.00,-RA,OVC,0.00,WeatherDisplay:10.37,2013-01-11 01:03:00,
2013-01-10 18:09:00,34.1,20.0,29.60,South,190,0.0,0.0,56,0.00,-RA,OVC,0.00,WeatherDisplay:10.37,2013-01-11 01:09:00,
2013-01-10 18:14:00,33.9,19.8,29.60,South,190,0.0,0.0,56,0.00,-RA,OVC,0.00,WeatherDisplay:10.37,2013-01-11 01:14:00,
2013-01-10 18:19:00,33.6,20.0,29.60,South,190,1.1,1.1,57,0.00,-RA,OVC,0.00,WeatherDisplay:10.37,2013-01-11 01:19:00,
2013-01-10 18:24:00,33.3,19.7,29.60,South,190,3.5,3.5,57,0.00,-RA,OVC,0.00,WeatherDisplay:10.37,2013-01-11 01:24:00,
2013-01-10 18:29:00,33.5,19.9,29.60,South,190,1.1,1.1,57,0.00,-RA,OVC,0.00,WeatherDisplay:10.37,2013-01-11 01:29:00,
2013-01-10 18:34:00,33.7,20.1,29.60,South,190,2.3,2.3,57,0.00,-RA,OVC,0.00,WeatherDisplay:10.37,2013-01-11 01:34:00,
2013-01-10 18:39:00,33.8,20.2,29.60,South,189,3.5,3.5,57,0.00,-RA,OVC,0.00,WeatherDisplay:10.37,2013-01-11 01:39:00,
2013-01-10 18:44:00,33.7,20.1,29.60,South,190,0.0,0.0,57,0.00,-RA,OVC,0.00,WeatherDisplay:10.37,2013-01-11 01:44:00,
2013-01-10 18:49:00,33.5,19.9,29.60,South,190,0.0,0.0,57,0.00,-RA,OVC,0.00,WeatherDisplay:10.37,2013-01-11 01:49:00,
2013-01-10 18:54:00,33.3,20.1,29.60,South,190,1.1,0.0,58,0.00,-RA,OVC,0.00,WeatherDisplay:10.37,2013-01-11 01:54:00,
2013-01-10 18:59:00,32.9,19.7,29.60,South,190,0.0,0.0,58,0.00,-RA,OVC,0.00,WeatherDisplay:10.37,2013-01-11 01:59:00,
2013-01-10 19:04:00,32.6,19.8,29.60,South,190,0.0,0.0,59,0.00,-RA,OVC,0.00,WeatherDisplay:10.37,2013-01-11 02:04:00,
2013-01-10 19:09:00,32.3,19.6,29.60,South,190,0.0,0.0,59,0.00,-RA,OVC,0.00,WeatherDisplay:10.37,2013-01-11 02:09:00,
2013-01-10 19:15:00,31.9,19.6,29.60,South,190,0.0,0.0,60,0.00,-RA,OVC,0.00,WeatherDisplay:10.37,2013-01-11 02:15:00,
2013-01-10 19:20:00,31.7,19.4,29.60,South,190,0.0,0.0,60,0.00,-RA,OVC,0.00,WeatherDisplay:10.37,2013-01-11 02:20:00,
2013-01-10 19:25:00,31.4,19.5,29.60,South,190,0.0,0.0,61,0.00,-RA,OVC,0.00,WeatherDisplay:10.37,2013-01-11 02:25:00,
2013-01-10 19:30:00,31.2,18.9,29.60,South,190,0.0,0.0,60,0.00,-RA,OVC,0.00,WeatherDisplay:10.37,2013-01-11 02:30:00,
2013-01-10 19:35:00,31.3,19.0,29.60,South,190,3.5,3.5,60,0.00,-RA,OVC,0.00,WeatherDisplay:10.37,2013-01-11 02:35:00,
2013-01-10 19:40:00,31.8,19.1,29.60,South,190,0.0,0.0,59,0.00,-RA,OVC,0.00,WeatherDisplay:10.37,2013-01-11 02:40:00,
2013-01-10 19:45:00,31.9,19.2,29.60,South,190,0.0,0.0,59,0.00,-RA,OVC,0.00,WeatherDisplay:10.37,2013-01-11 02:45:00,
2013-01-10 19:50:00,31.8,19.1,29.60,South,190,0.0,0.0,59,0.00,-RA,OVC,0.00,WeatherDisplay:10.37,2013-01-11 02:50:00,
2013-01-10 19:55:00,31.5,19.2,29.60,South,190,0.0,0.0,60,0.00,-RA,OVC,0.00,WeatherDisplay:10.37,2013-01-11 02:55:00,
2013-01-10 20:01:00,31.3,19.4,29.60,SE,146,3.5,3.5,61,0.00,-RA,OVC,0.00,WeatherDisplay:10.37,2013-01-11 03:01:00,
2013-01-10 20:06:00,31.1,19.6,29.60,SE,146,3.5,3.5,62,0.00,-RA,OVC,0.00,WeatherDisplay:10.37,2013-01-11 03:06:00,
2013-01-10 20:11:00,31.1,20.0,29.60,SE,146,3.5,3.5,63,0.00,-RA,OVC,0.00,WeatherDisplay:10.37,2013-01-11 03:11:00,
2013-01-10 20:16:00,31.3,19.8,29.60,SE,146,1.1,0.0,62,0.00,-RA,OVC,0.00,WeatherDisplay:10.37,2013-01-11 03:16:00,
2013-01-10 20:21:00,31.5,19.2,29.60,SE,146,2.0,2.0,60,0.00,-RA,OVC,0.00,WeatherDisplay:10.37,2013-01-11 03:21:00,
2013-01-10 20:26:00,31.7,19.4,29.60,SE,146,2.3,2.3,60,0.00,-RA,OVC,0.00,WeatherDisplay:10.37,2013-01-11 03:26:00,
2013-01-10 20:31:00,31.8,19.1,29.60,SE,146,0.0,0.0,59,0.00,-RA,OVC,0.00,WeatherDisplay:10.37,2013-01-11 03:31:00,
2013-01-10 20:36:00,31.7,19.0,29.60,SE,146,1.1,1.1,59,0.00,-RA,OVC,0.00,WeatherDisplay:10.37,2013-01-11 03:36:00,
2013-01-10 20:41:00,31.8,19.1,29.60,SE,146,2.3,2.3,59,0.00,-RA,OVC,0.00,WeatherDisplay:10.37,2013-01-11 03:41:00,
2013-01-10 20:46:00,32.2,17.8,29.60,SE,146,1.1,0.0,55,0.00,-RA,OVC,0.00,WeatherDisplay:10.37,2013-01-11 03:46:00,
2013-01-10 20:51:00,32.8,17.5,29.60,SE,146,0.0,0.0,53,0.00,-RA,OVC,0.00,WeatherDisplay:10.37,2013-01-11 03:51:00,
2013-01-10 20:57:00,33.3,17.5,29.60,SE,146,3.5,3.5,52,0.00,-RA,OVC,0.00,WeatherDisplay:10.37,2013-01-11 03:57:00,
2013-01-10 21:02:00,34.0,14.9,29.60,ESE,109,3.5,3.5,45,0.00,-RA,OVC,0.00,WeatherDisplay:10.37,2013-01-11 04:02:00,
2013-01-10 21:07:00,36.4,12.6,29.58,ENE,70,3.5,3.5,37,0.00,-RA,OVC,0.00,WeatherDisplay:10.37,2013-01-11 04:07:00,
2013-01-10 21:12:00,38.7,11.3,29.58,ENE,58,3.5,3.5,32,0.00,-RA,OVC,0.00,WeatherDisplay:10.37,2013-01-11 04:12:00,
2013-01-10 21:17:00,40.8,11.7,29.58,ENE,67,3.5,3.5,30,0.00,-RA,OVC,0.00,WeatherDisplay:10.37,2013-01-11 04:17:00,
2013-01-10 21:22:00,41.9,11.1,29.58,NE,53,6.9,6.9,28,0.00,-RA,OVC,0.00,WeatherDisplay:10.37,2013-01-11 04:22:00,
2013-01-10 21:28:00,42.7,11.0,29.58,NE,51,3.5,3.5,27,0.00,-RA,OVC,0.00,WeatherDisplay:10.37,2013-01-11 04:28:00,
2013-01-10 21:33:00,43.2,11.4,29.57,NE,47,2.3,2.3,27,0.00,-RA,OVC,0.00,WeatherDisplay:10.37,2013-01-11 04:33:00,
2013-01-10 21:38:00,43.1,12.2,29.57,NE,53,3.5,3.5,28,0.00,-RA,OVC,0.00,WeatherDisplay:10.37,2013-01-11 04:38:00,
2013-01-10 21:43:00,43.1,12.2,29.57,NE,49,4.6,4.6,28,0.00,-RA,OVC,0.00,WeatherDisplay:10.37,2013-01-11 04:43:00,
2013-01-10 21:48:00,43.6,11.8,29.57,ENE,57,10.4,10.4,27,0.00,-RA,OVC,0.00,WeatherDisplay:10.37,2013-01-11 04:48:00,
2013-01-10 21:53:00,44.7,11.9,29.57,NE,48,9.2,9.2,26,0.00,-RA,OVC,0.00,WeatherDisplay:10.37,2013-01-11 04:53:00,
2013-01-10 21:58:00,45.8,11.9,29.57,NNE,21,15.0,15.0,25,0.00,-RA,OVC,0.00,WeatherDisplay:10.37,2013-01-11 04:58:00,
2013-01-10 22:00:00,46.1,12.2,29.57,NE,42,15.0,15.0,25,0.00,-RA,OVC,0.00,WeatherDisplay:10.37,2013-01-11 05:00:00,
2013-01-10 22:03:00,46.7,11.8,29.57,NE,40,11.5,11.5,24,0.00,-RA,OVC,0.00,WeatherDisplay:10.37,2013-01-11 05:03:00,
2013-01-10 22:08:00,47.1,12.1,29.57,ENE,67,12.7,12.7,24,0.00,-RA,OVC,0.00,WeatherDisplay:10.37,2013-01-11 05:08:00,
2013-01-10 22:13:00,47.2,12.2,29.57,NNE,17,11.5,11.5,24,0.00,-RA,OVC,0.00,WeatherDisplay:10.37,2013-01-11 05:13:00,
2013-01-10 22:18:00,47.1,12.1,29.57,NNE,30,11.5,11.5,24,0.00,-RA,OVC,0.00,WeatherDisplay:10.37,2013-01-11 05:18:00,
2013-01-10 22:23:00,47.0,12.0,29.57,NE,37,9.2,9.2,24,0.00,-RA,OVC,0.00,WeatherDisplay:10.37,2013-01-11 05:23:00,
2013-01-10 22:28:00,46.8,12.8,29.57,NE,46,10.4,10.4,25,0.00,-RA,OVC,0.00,WeatherDisplay:10.37,2013-01-11 05:28:00,
2013-01-10 22:33:00,46.5,12.5,29.57,NE,51,10.4,10.4,25,0.00,-RA,OVC,0.00,WeatherDisplay:10.37,2013-01-11 05:33:00,
2013-01-10 22:38:00,46.4,13.3,29.57,ENE,60,11.5,11.5,26,0.00,-RA,OVC,0.00,WeatherDisplay:10.37,2013-01-11 05:38:00,
2013-01-10 22:43:00,46.4,13.3,29.57,NE,55,13.8,13.8,26,0.00,-RA,OVC,0.00,WeatherDisplay:10.37,2013-01-11 05:43:00,
2013-01-10 22:48:00,46.1,13.1,29.57,ENE,71,10.4,10.4,26,0.00,-RA,OVC,0.00,WeatherDisplay:10.37,2013-01-11 05:48:00,
2013-01-10 22:53:00,45.7,13.6,29.57,NE,44,4.6,4.6,27,0.00,-RA,OVC,0.00,WeatherDisplay:10.37,2013-01-11 05:53:00,
2013-01-10 22:58:00,45.1,13.9,29.57,NE,50,10.4,10.4,28,0.00,-RA,OVC,0.00,WeatherDisplay:10.37,2013-01-11 05:58:00,
2013-01-10 23:03:00,44.8,13.6,29.57,NNE,30,9.2,9.2,28,0.00,-RA,OVC,0.00,WeatherDisplay:10.37,2013-01-11 06:03:00,
2013-01-10 23:08:00,44.7,14.3,29.57,NE,42,9.2,9.2,29,0.00,-RA,OVC,0.00,WeatherDisplay:10.37,2013-01-11 06:08:00,
2013-01-10 23:13:00,44.8,14.4,29.57,NE,34,11.5,11.5,29,0.00,-RA,OVC,0.00,WeatherDisplay:10.37,2013-01-11 06:13:00,
2013-01-10 23:18:00,45.0,14.6,29.57,ENE,63,8.1,8.1,29,0.00,-RA,OVC,0.00,WeatherDisplay:10.37,2013-01-11 06:18:00,
2013-01-10 23:23:00,44.8,14.4,29.56,ENE,57,6.9,6.9,29,0.00,-RA,OVC,0.00,WeatherDisplay:10.37,2013-01-11 06:23:00,
2013-01-10 23:28:00,44.4,14.1,29.56,NE,55,11.5,11.5,29,0.00,-RA,OVC,0.00,WeatherDisplay:10.37,2013-01-11 06:28:00,
2013-01-10 23:33:00,44.0,14.5,29.55,NE,45,5.8,5.8,30,0.00,-RA,OVC,0.00,WeatherDisplay:10.37,2013-01-11 06:33:00,
2013-01-10 23:38:00,43.5,14.1,29.55,ENE,59,8.0,8.0,30,0.00,-RA,OVC,0.00,WeatherDisplay:10.37,2013-01-11 06:38:00,
2013-01-10 23:43:00,43.2,13.8,29.55,NE,40,9.2,9.2,30,0.00,-RA,OVC,0.00,WeatherDisplay:10.37,2013-01-11 06:43:00,
2013-01-10 23:48:00,43.0,14.4,29.55,NNE,19,5.8,5.8,31,0.00,-RA,OVC,0.00,WeatherDisplay:10.37,2013-01-11 06:48:00,
2013-01-10 23:53:00,42.7,14.8,29.55,NE,41,10.4,10.4,32,0.00,-RA,OVC,0.00,WeatherDisplay:10.37,2013-01-11 06:53:00,
2013-01-10 23:58:00,42.3,14.5,29.55,NE,44,4.6,4.6,32,0.00,-RA,OVC,0.00,WeatherDisplay:10.37,2013-01-11 06:58:00,